Location: Amsterdam
(30.7274°N, 84.4357°W)
Time: 19:23:33
(UTC+00:00)

Tiros 1 - Pass Details

Date: 21 February 2026
Orbit: 618 x 649 km, 48.4° (Epoch: 10 March)

Event Time Altitude Azimuth Distance (km) Brightness Sun altitude
Rises 17:41:21 0° 322° (NW) 2,893 10.2 48.8°
Reaches altitude 10° 17:44:24 10° 343° (NNW) 1,982 9.4 48.9°
Maximum altitude 17:47:23 17° 24° (NNE) 1,570 9.0 48.9°
Drops below altitude 10° 17:50:21 10° 66° (ENE) 1,975 9.6 48.9°
Sets 17:53:23 0° 86° (E) 2,879 10.5 48.9°
